DELTA 1 DEB, 39096

Orbit data source: Space-Track

DELTA 1 DEB, 39096 is space debris in SSO originally from a launch on Tue, 06 Nov 1973 UTC launched from the Air Force Western Test Range (AFWTR). Debris objects in space refer to the collection of defunct objects orbiting the Earth. Examples of debris include non-operational satellites, rocket bodies, and fragments generated from explosions, collisions, or faulty payload assembly.

Loading next visibility...
Identifier
39096, 1973-086HJ
Orbit
SSO
Country
Flag of USUS
Related business
Manufacturer
Unknown
Mission
Spacecraft
Bus & Motor
Unknown
Mass
Unknown
Launch date (UTC)
1973-11-06 (52 years ago)
Launch vehicle
Unknown
Launch site
Air Force Western Test Range (AFWTR)
Object type
Payload
Rocket body
Debris
Shape & HBR
Unknown shape, 0.1 m
Radar Cross Section
Small (<0.1 m²)

Expand to show TLE details & history
Last TLE update: 2 weeks ago

TLE from 2 weeks ago
0 DELTA 1 DEB
1 39096U 73086HJ  25279.54308776  .00000387  00000-0  32466-2 0  9997
2 39096 101.3731 203.3186 0077500 120.3122 240.5637 12.38080817526051
Epoch: 2025-10-06T13:02Z
TLE epoch observation values (Epoch: 2025-10-06T13:02:02.782Z)
Latitude
-0.0001°
Longitude
-7.6378°
Altitude
1,547.745 km
Speed
7.079 km/s
True Right ascension
13h 33m 16s
True Declination
0° 00' 00"
Sunlit
Object was in daylight at epoch
Visualization orbit readout
Latitude
Unknown
Longitude
Unknown
Altitude
Unknown
Speed
Unknown
Apparent Right ascension
Unknown
Apparent Declination
Unknown
Sunlit
N/A
Visualization observer readout
Local Sidereal Time
20:04:07
Azimuth
Unknown
Elevation
Unknown
Doppler factor
Unknown
Orbital elements
Apogee altitude
1,573.441 km
Perigee altitude
1,451.139 km
Semi-major axis
7,890.427 km
Eccentricity
0.00775
Inclination
101.3731°
RAAN
203.3186°
Arg. of periapsis
120.3122°
True anomaly
239.79395°
Mean anomaly
240.5637°
Eccentric anomaly
240.17846°
Mean motion
3.09665 °/min
Orbital period
116.25 mins
BSTAR
0.0032466
Loading maneuver chart data...
Computing Atmospheric mass density...
Loading historical data...
Loading historical data...
Loading historical data...
Loading historical data...
Loading historical data...
Loading historical data...
Loading historical data...

Documentation

Showing up to 5 results
|